PDT,Max TemperatureF,Mean TemperatureF,Min TemperatureF,Max Dew PointF,MeanDew PointF,Min DewpointF,Max Humidity, Mean Humidity, Min Humidity, Max Sea Level PressureIn, Mean Sea Level PressureIn, Min Sea Level PressureIn, Max VisibilityMiles, Mean VisibilityMiles, Min VisibilityMiles, Max Wind SpeedMPH, Mean Wind SpeedMPH, Max Gust SpeedMPH,PrecipitationIn, CloudCover, Events, WindDirDegrees
2013-3-1,52,51,49,49,48,46,100,93,86,30.40,30.36,30.31,10,9,4,23,14,31,0.01,8,,175
2013-3-2,50,45,39,48,44,36,100,91,82,30.30,30.20,30.14,10,7,2,22,9,30,0.09,7,Rain,226
2013-3-3,49,43,36,38,36,34,100,81,61,30.32,30.30,30.28,10,10,5,18,6,23,0.04,3,Rain,297
2013-3-4,54,42,30,37,32,27,100,69,38,30.29,30.16,29.90,10,6,0,22,9,29,0.00,2,Fog,64
2013-3-5,45,42,39,43,39,33,96,88,79,29.90,29.79,29.70,10,9,6,14,7,20,0.36,8,Rain,61
2013-3-6,46,44,41,43,41,39,100,95,89,29.91,29.75,29.60,10,9,4,13,4,15,0.36,8,Rain,173
2013-3-7,50,44,37,45,42,37,100,87,74,30.09,30.02,29.90,10,8,0,12,4,15,0.12,7,Fog-Rain,78
2013-3-8,51,42,32,43,37,32,100,83,66,30.25,30.12,30.07,10,6,0,14,6,17,0.00,4,Fog,50
2013-3-9,48,40,31,43,35,30,100,86,71,30.53,30.40,30.27,10,4,0,13,4,15,0.00,4,Fog,87
2013-3-10,47,42,36,43,41,35,100,91,82,30.51,30.46,30.43,10,9,5,7,2,8,0.09,8,Rain,312
2013-3-11,50,47,44,48,45,42,100,93,86,30.45,30.33,30.19,10,7,1,16,6,21,0.31,8,Rain,76
2013-3-12,50,49,48,48,48,46,100,97,93,30.19,30.13,30.10,10,6,2,26,17,33,1.17,8,Rain,177
2013-3-13,51,49,46,48,48,46,100,97,93,30.22,30.16,30.10,10,6,0,18,5,22,0.70,7,Fog-Rain,153
2013-3-14,50,49,47,49,46,44,100,90,80,30.17,30.10,30.07,10,6,0,24,11,31,0.16,7,Fog-Rain,155
2013-3-15,50,49,47,49,47,46,100,97,93,30.25,30.21,30.16,10,4,1,13,6,16,0.17,8,Rain,207
2013-3-16,48,45,41,47,43,34,100,80,60,30.18,30.07,29.99,10,8,2,29,16,33,0.22,7,Rain,229
2013-3-17,48,43,38,38,35,32,86,73,60,30.26,30.22,30.09,10,10,5,26,12,31,0.10,7,Rain,263
2013-3-18,50,43,35,41,37,34,85,71,56,30.27,30.23,30.19,10,10,6,26,11,32,0.14,5,Rain,256
2013-3-19,50,43,35,45,39,33,92,76,60,30.19,29.88,29.55,10,8,4,31,13,41,0.72,5,Rain,66
2013-3-20,50,44,38,48,43,31,93,82,70,30.09,29.62,29.38,10,6,2,36,24,51,0.53,8,Rain,216
2013-3-21,46,40,34,38,35,32,92,79,65,30.29,30.21,30.09,10,9,2,28,9,36,0.25,6,Rain,268
2013-3-22,47,40,32,36,33,29,96,73,49,30.39,30.33,30.27,10,10,7,21,5,28,0.08,4,Rain-Snow,302
2013-3-23,46,40,33,37,34,32,100,81,62,30.41,30.37,30.31,10,10,10,12,4,14,0.00,3,,53
2013-3-24,54,46,38,36,35,32,92,69,46,30.30,30.21,30.12,10,10,10,14,7,18,0.00,8,,70
2013-3-25,59,49,39,43,37,35,85,63,40,30.10,30.02,29.95,10,10,10,15,7,17,0.00,5,,83
2013-3-26,53,49,45,47,45,42,93,85,77,30.04,30.01,29.98,10,10,8,13,3,14,0.00,8,,241
2013-3-27,58,53,47,49,47,45,100,86,72,30.01,29.96,29.94,10,9,4,12,4,13,0.14,7,Rain,117
2013-3-28,56,51,46,50,48,45,100,89,77,30.17,30.08,30.01,10,6,0,12,4,13,0.14,7,Fog-Rain,232
2013-3-29,61,53,44,51,47,44,100,81,62,30.26,30.22,30.16,10,8,2,15,4,16,0.02,5,Rain,217
2013-3-30,71,56,41,51,44,40,100,69,38,30.25,30.16,30.04,10,10,10,16,7,22,0.00,0,,59
2013-3-31,70,57,44,53,46,40,100,74,48,30.04,30.00,29.95,10,9,1,20,10,23,0.00,3,,176